| time (UTC) | temp C | wind direction | speed KPH | gust KPH | rain 1hr cm | rain 24hr cm | rain mn cm | humidity % | barometer mb |
| 20260901115027 | 21 | 132 | 3.2 | 6.4 | 0.00 | 3.17 | 0.00 | 84 | 1017.5 |
| 20260901114521 | 21 | 133 | 3.2 | 6.4 | 0.00 | 3.17 | 0.00 | 84 | 1017.5 |
| 20260901114020 | 21 | 133 | 3.2 | 6.4 | 0.00 | 3.17 | 0.00 | 84 | 1017.5 |
| 20260901113515 | 21 | 133 | 3.2 | 6.4 | 0.00 | 3.17 | 0.00 | 84 | 1017.5 |
| 20260901113030 | 21 | 134 | 3.2 | 6.4 | 0.00 | 3.17 | 0.00 | 84 | 1017.6 |
| 20260901112524 | 21 | 135 | 3.2 | 6.4 | 0.00 | 3.17 | 0.00 | 84 | 1017.6 |
| 20260901112019 | 21 | 136 | 4.8 | 6.4 | 0.00 | 3.17 | 0.00 | 84 | 1017.6 |
| 20260901111514 | 21 | 137 | 4.8 | 6.4 | 0.00 | 3.17 | 0.00 | 84 | 1017.5 |
| 20260901111030 | 21 | 137 | 4.8 | 6.4 | 0.00 | 3.17 | 0.00 | 84 | 1017.6 |
| 20260901110528 | 21 | 138 | 3.2 | 6.4 | 0.00 | 3.17 | 0.00 | 84 | 1017.5 |
| 20260901110040 | 21 | 139 | 3.2 | 6.4 | 0.00 | 3.17 | 0.00 | 84 | 1017.6 |
| 20260901105522 | 21 | 140 | 3.2 | 6.4 | 0.00 | 3.17 | 0.00 | 84 | 1017.6 |
| 20260901105016 | 21 | 140 | 1.6 | 4.8 | 0.00 | 3.17 | 0.00 | 83 | 1017.5 |
| 20260901104531 | 21 | 140 | 1.6 | 4.8 | 0.00 | 3.17 | 0.00 | 83 | 1017.5 |
| 20260901104026 | 21 | 140 | 1.6 | 4.8 | 0.00 | 3.17 | 0.00 | 82 | 1017.5 |
| 20260901103522 | 21 | 140 | 3.2 | 4.8 | 0.00 | 3.17 | 0.00 | 81 | 1017.5 |
| 20260901103017 | 22 | 141 | 1.6 | 4.8 | 0.00 | 3.17 | 0.00 | 81 | 1017.5 |
| 20260901102517 | 22 | 141 | 1.6 | 8.0 | 0.00 | 3.17 | 0.00 | 81 | 1017.4 |
| 20260901102013 | 22 | 141 | 3.2 | 8.0 | 0.00 | 3.17 | 0.00 | 81 | 1017.4 |
| 20260901101527 | 22 | 142 | 3.2 | 6.4 | 0.00 | 3.17 | 0.00 | 81 | 1017.2 |
| 20260901101023 | 22 | 143 | 3.2 | 4.8 | 0.00 | 3.17 | 0.00 | 81 | 1017.3 |
| 20260901100518 | 22 | 143 | 3.2 | 4.8 | 0.00 | 3.17 | 0.00 | 81 | 1017.2 |
| 20260901100045 | 22 | 144 | 1.6 | 4.8 | 0.00 | 3.17 | 0.00 | 80 | 1017.1 |
| 20260901095525 | 22 | 144 | 1.6 | 6.4 | 0.00 | 3.17 | 0.00 | 80 | 1017.2 |
| 20260901095023 | 22 | 144 | 1.6 | 6.4 | 0.00 | 3.17 | 0.00 | 81 | 1017.3 |
| 20260901094517 | 22 | 144 | 3.2 | 6.4 | 0.00 | 3.17 | 0.00 | 80 | 1017.3 |
| 20260901094011 | 22 | 146 | 3.2 | 6.4 | 0.00 | 3.17 | 0.00 | 78 | 1017.2 |
| 20260901093526 | 22 | 146 | 3.2 | 6.4 | 0.00 | 3.17 | 0.00 | 78 | 1017.2 |
| 20260901093020 | 22 | 148 | 3.2 | 6.4 | 0.00 | 3.17 | 0.00 | 78 | 1017.1 |
| 20260901092514 | 22 | 148 | 1.6 | 6.4 | 0.00 | 3.17 | 0.00 | 77 | 1017.2 |
| 20260901092028 | 22 | 148 | 1.6 | 3.2 | 0.00 | 3.17 | 0.00 | 78 | 1017.2 |
| 20260901091522 | 22 | 148 | 1.6 | 3.2 | 0.00 | 3.17 | 0.00 | 78 | 1017.2 |
| 20260901091021 | 22 | 148 | 0.0 | 4.8 | 0.00 | 3.17 | 0.00 | 79 | 1017.3 |
| 20260901090515 | 22 | 148 | 3.2 | 4.8 | 0.00 | 3.17 | 0.00 | 79 | 1017.3 |
| 20260901090042 | 22 | 148 | 3.2 | 4.8 | 0.00 | 3.17 | 0.00 | 79 | 1017.3 |
| 20260901085522 | 22 | 148 | 0.0 | 3.2 | 0.00 | 3.17 | 0.00 | 78 | 1017.3 |
| 20260901085016 | 22 | 148 | 0.0 | 3.2 | 0.00 | 3.17 | 0.00 | 78 | 1017.3 |
| 20260901084530 | 22 | 148 | 1.6 | 4.8 | 0.00 | 3.17 | 0.00 | 77 | 1017.3 |
| 20260901084025 | 22 | 148 | 1.6 | 4.8 | 0.00 | 3.17 | 0.00 | 77 | 1017.3 |
| 20260901083524 | 22 | 148 | 1.6 | 4.8 | 0.00 | 3.17 | 0.00 | 78 | 1017.3 |
| 20260901083018 | 22 | 148 | 1.6 | 4.8 | 0.00 | 3.17 | 0.00 | 77 | 1017.2 |
| 20260901082512 | 22 | 148 | 3.2 | 8.0 | 0.00 | 3.17 | 0.00 | 77 | 1017.3 |
| 20260901082027 | 22 | 148 | 3.2 | 8.0 | 0.00 | 3.17 | 0.00 | 77 | 1017.2 |
| 20260901081521 | 22 | 148 | 1.6 | 4.8 | 0.00 | 3.17 | 0.00 | 77 | 1017.4 |
| 20260901081016 | 22 | 148 | 3.2 | 4.8 | 0.00 | 3.17 | 0.00 | 76 | 1017.3 |
| 20260901080531 | 23 | 147 | 1.6 | 6.4 | 0.00 | 3.17 | 0.00 | 76 | 1017.5 |
| 20260901080038 | 22 | 147 | 1.6 | 6.4 | 0.00 | 3.17 | 0.00 | 76 | 1017.5 |
| 20260901075522 | 22 | 147 | 3.2 | 6.4 | 0.00 | 3.17 | 0.00 | 76 | 1017.4 |
| 20260901075017 | 22 | 147 | 3.2 | 4.8 | 0.00 | 3.17 | 0.00 | 77 | 1017.5 |
| 20260901074512 | 22 | 146 | 3.2 | 4.8 | 0.00 | 3.17 | 0.00 | 77 | 1017.4 |
| 20260901074026 | 22 | 146 | 1.6 | 3.2 | 0.00 | 3.17 | 0.00 | 77 | 1017.6 |
| 20260901073521 | 22 | 146 | 1.6 | 3.2 | 0.00 | 3.17 | 0.00 | 77 | 1017.6 |
| 20260901073015 | 22 | 146 | 0.0 | 4.8 | 0.00 | 3.17 | 0.00 | 76 | 1017.5 |
| 20260901072529 | 23 | 146 | 1.6 | 4.8 | 0.00 | 3.17 | 0.00 | 76 | 1017.6 |
| 20260901072028 | 23 | 146 | 1.6 | 4.8 | 0.00 | 3.17 | 0.00 | 75 | 1017.6 |
| 20260901071522 | 23 | 146 | 1.6 | 6.4 | 0.00 | 3.17 | 0.00 | 75 | 1017.6 |
| 20260901071016 | 23 | 146 | 3.2 | 6.4 | 0.00 | 3.17 | 0.00 | 74 | 1017.6 |
| 20260901070530 | 23 | 146 | 3.2 | 8.0 | 0.00 | 3.17 | 0.00 | 74 | 1017.5 |
| 20260901070037 | 23 | 146 | 3.2 | 8.0 | 0.00 | 3.17 | 0.00 | 74 | 1017.6 |
| 20260901065517 | 23 | 147 | 4.8 | 9.7 | 0.00 | 3.17 | 3.17 | 74 | 1017.5 |
| 20260901065012 | 23 | 140 | 4.8 | 9.7 | 0.00 | 3.17 | 3.17 | 74 | 1017.5 |
| 20260901064527 | 23 | 142 | 4.8 | 8.0 | 0.00 | 3.17 | 3.17 | 74 | 1017.6 |
| 20260901064025 | 23 | 142 | 3.2 | 8.0 | 0.00 | 3.17 | 3.17 | 74 | 1017.7 |
| 20260901063520 | 23 | 144 | 3.2 | 8.0 | 0.00 | 3.17 | 3.17 | 75 | 1017.7 |
| 20260901063014 | 23 | 148 | 4.8 | 9.7 | 0.00 | 3.17 | 3.17 | 76 | 1017.8 |
| 20260901062529 | 23 | 151 | 3.2 | 9.7 | 0.00 | 3.17 | 3.17 | 75 | 1017.8 |
| 20260901062023 | 23 | 159 | 4.8 | 9.7 | 0.00 | 3.17 | 3.17 | 75 | 1017.7 |
| 20260901061518 | 23 | 116 | 3.2 | 9.7 | 0.00 | 3.17 | 3.17 | 76 | 1017.9 |
| 20260901061012 | 23 | 115 | 4.8 | 9.7 | 0.00 | 3.17 | 3.17 | 76 | 1017.9 |
| 20260901060531 | 23 | 114 | 4.8 | 6.4 | 0.00 | 3.17 | 3.17 | 77 | 1017.8 |
| 20260901060036 | 23 | 113 | 3.2 | 6.4 | 0.00 | 3.17 | 3.17 | 77 | 1017.7 |
| 20260901055517 | 23 | 109 | 3.2 | 6.4 | 0.00 | 3.17 | 3.17 | 78 | 1017.7 |
| 20260901055031 | 23 | 109 | 3.2 | 6.4 | 0.00 | 3.17 | 3.17 | 78 | 1017.7 |
| 20260901054525 | 23 | 109 | 1.6 | 4.8 | 0.00 | 3.17 | 3.17 | 78 | 1017.7 |
| 20260901054020 | 23 | 109 | 3.2 | 4.8 | 0.00 | 3.17 | 3.17 | 77 | 1017.8 |
| 20260901053514 | 23 | 109 | 3.2 | 4.8 | 0.00 | 3.17 | 3.17 | 76 | 1017.7 |
| 20260901053013 | 23 | 109 | 3.2 | 8.0 | 0.00 | 3.17 | 3.17 | 77 | 1017.5 |
| 20260901052527 | 23 | 109 | 4.8 | 8.0 | 0.00 | 3.17 | 3.17 | 77 | 1017.5 |
| 20260901052021 | 23 | 106 | 4.8 | 8.0 | 0.00 | 3.17 | 3.17 | 77 | 1017.5 |
| 20260901051516 | 23 | 101 | 3.2 | 4.8 | 0.00 | 3.17 | 3.17 | 77 | 1017.6 |
| 20260901051031 | 23 | 101 | 3.2 | 4.8 | 0.00 | 3.17 | 3.17 | 77 | 1017.7 |
| 20260901050525 | 24 | 101 | 3.2 | 4.8 | 0.00 | 3.17 | 3.17 | 77 | 1017.7 |
| 20260901050032 | 24 | 101 | 3.2 | 6.4 | 0.00 | 3.17 | 3.17 | 76 | 1017.7 |
| 20260901045511 | 24 | 101 | 3.2 | 8.0 | 0.00 | 3.17 | 3.17 | 75 | 1017.8 |
| 20260901045030 | 24 | 101 | 4.8 | 8.0 | 0.00 | 3.17 | 3.17 | 75 | 1017.9 |
| 20260901044524 | 24 | 100 | 4.8 | 8.0 | 0.00 | 3.17 | 3.17 | 76 | 1017.9 |
| 20260901044019 | 24 | 99 | 3.2 | 6.4 | 0.00 | 3.17 | 3.17 | 76 | 1017.8 |
| 20260901043512 | 24 | 98 | 3.2 | 4.8 | 0.00 | 3.17 | 3.17 | 76 | 1017.9 |
| 20260901043026 | 24 | 98 | 3.2 | 6.4 | 0.00 | 3.17 | 3.17 | 76 | 1017.8 |
| 20260901042521 | 24 | 99 | 4.8 | 6.4 | 0.00 | 3.17 | 3.17 | 76 | 1017.6 |
| 20260901041520 | 24 | 99 | 3.2 | 4.8 | 0.00 | 3.17 | 3.17 | 76 | 1017.5 |
| 20260901041014 | 24 | 99 | 1.6 | 4.8 | 0.00 | 3.17 | 3.17 | 75 | 1017.5 |
| 20260901040528 | 24 | 99 | 1.6 | 4.8 | 0.00 | 3.17 | 3.17 | 75 | 1017.5 |
| 20260901040036 | 24 | 99 | 1.6 | 4.8 | 0.00 | 3.17 | 3.17 | 74 | 1017.5 |
| 20260901035517 | 24 | 99 | 1.6 | 4.8 | 0.00 | 3.17 | 3.17 | 75 | 1017.7 |
| 20260901035031 | 24 | 99 | 1.6 | 3.2 | 0.00 | 3.17 | 3.17 | 75 | 1017.5 |
| 20260901034525 | 23 | 99 | 1.6 | 3.2 | 0.00 | 3.17 | 3.17 | 78 | 1017.4 |
| 20260901034020 | 23 | 99 | 1.6 | 3.2 | 0.00 | 3.17 | 3.17 | 79 | 1017.4 |
| 20260901033518 | 24 | 99 | 0.0 | 0.0 | 0.00 | 3.17 | 3.17 | 77 | 1017.5 |
| 20260901033033 | 24 | 99 | 0.0 | 3.2 | 0.00 | 3.17 | 3.17 | 75 | 1017.4 |
| 20260901032527 | 23 | 99 | 1.6 | 3.2 | 0.00 | 3.17 | 3.17 | 77 | 1017.3 |
| 20260901032021 | 23 | 99 | 1.6 | 3.2 | 0.00 | 3.17 | 3.17 | 79 | 1017.2 |
| 20260901031515 | 24 | 99 | 1.6 | 3.2 | 0.00 | 3.17 | 3.17 | 78 | 1017.2 |
| 20260901031029 | 24 | 99 | 0.0 | 1.6 | 0.00 | 3.17 | 3.17 | 75 | 1017.1 |
| 20260901030524 | 24 | 99 | 0.0 | 1.6 | 0.00 | 3.17 | 3.17 | 74 | 1017.1 |
| 20260901030034 | 24 | 99 | 1.6 | 3.2 | 0.00 | 3.17 | 3.17 | 74 | 1017.0 |
| 20260901025534 | 25 | 99 | 0.0 | 3.2 | 0.00 | 3.17 | 3.17 | 74 | 1017.0 |
| 20260901025029 | 24 | 99 | 0.0 | 3.2 | 0.00 | 3.17 | 3.17 | 74 | 1016.9 |
| 20260901024524 | 24 | 99 | 1.6 | 3.2 | 0.00 | 3.17 | 3.17 | 74 | 1017.0 |
| 20260901024018 | 25 | 99 | 0.0 | 3.2 | 0.00 | 3.17 | 3.17 | 73 | 1016.7 |
| 20260901023533 | 25 | 99 | 1.6 | 3.2 | 0.00 | 3.17 | 3.17 | 72 | 1016.7 |
| 20260901023027 | 25 | 99 | 1.6 | 4.8 | 0.00 | 3.17 | 3.17 | 70 | 1016.6 |
| 20260901022522 | 25 | 99 | 3.2 | 4.8 | 0.00 | 3.17 | 3.17 | 70 | 1016.4 |
| 20260901022022 | 25 | 99 | 0.0 | 3.2 | 0.00 | 3.17 | 3.17 | 70 | 1016.4 |
| 20260901021518 | 25 | 99 | 1.6 | 3.2 | 0.00 | 3.17 | 3.17 | 70 | 1016.5 |
| 20260901021033 | 25 | 99 | 1.6 | 4.8 | 0.00 | 3.17 | 3.17 | 69 | 1016.4 |
| 20260901020528 | 25 | 99 | 1.6 | 4.8 | 0.00 | 3.17 | 3.17 | 69 | 1016.0 |
| 20260901020035 | 25 | 99 | 1.6 | 3.2 | 0.00 | 3.17 | 3.17 | 69 | 1016.0 |
| 20260901015515 | 25 | 99 | 1.6 | 3.2 | 0.00 | 3.17 | 3.17 | 68 | 1016.0 |
| 20260901015030 | 25 | 99 | 1.6 | 3.2 | 0.00 | 3.17 | 3.17 | 69 | 1016.0 |
| 20260901014529 | 25 | 99 | 0.0 | 3.2 | 0.00 | 3.17 | 3.17 | 71 | 1016.0 |
| 20260901014024 | 25 | 98 | 1.6 | 3.2 | 0.00 | 3.17 | 3.17 | 70 | 1015.9 |
| 20260901013518 | 25 | 99 | 0.0 | 4.8 | 0.00 | 3.17 | 3.17 | 71 | 1015.9 |
| 20260901013032 | 25 | 99 | 0.0 | 6.4 | 0.00 | 3.17 | 3.17 | 68 | 1015.7 |
| 20260901012526 | 25 | 99 | 3.2 | 6.4 | 0.00 | 3.17 | 3.17 | 68 | 1015.4 |
| 20260901012021 | 25 | 98 | 1.6 | 3.2 | 0.00 | 3.17 | 3.17 | 68 | 1015.5 |
| 20260901011515 | 25 | 98 | 1.6 | 4.8 | 0.00 | 3.17 | 3.17 | 68 | 1015.5 |
| 20260901011029 | 25 | 98 | 1.6 | 4.8 | 0.00 | 3.17 | 3.17 | 68 | 1015.4 |
| 20260901010529 | 26 | 98 | 3.2 | 6.4 | 0.00 | 3.17 | 3.17 | 68 | 1015.5 |
| 20260901010034 | 26 | 99 | 3.2 | 6.4 | 0.00 | 3.17 | 3.17 | 68 | 1015.4 |
| 20260901005515 | 26 | 99 | 4.8 | 6.4 | 0.00 | 3.17 | 3.17 | 67 | 1015.4 |
| 20260901005030 | 26 | 98 | 4.8 | 6.4 | 0.00 | 3.17 | 3.17 | 67 | 1015.5 |
| 20260901004524 | 26 | 99 | 3.2 | 8.0 | 0.00 | 3.17 | 3.17 | 67 | 1015.5 |
| 20260901004018 | 26 | 99 | 4.8 | 8.0 | 0.00 | 3.17 | 3.17 | 66 | 1015.6 |
| 20260901003533 | 26 | 100 | 4.8 | 8.0 | 0.00 | 3.17 | 3.17 | 65 | 1015.5 |
| 20260901003032 | 26 | 100 | 3.2 | 4.8 | 0.00 | 3.17 | 3.17 | 66 | 1015.5 |
| 20260901002526 | 26 | 100 | 1.6 | 4.8 | 0.00 | 3.17 | 3.17 | 68 | 1015.7 |
| 20260901002020 | 26 | 100 | 1.6 | 8.0 | 0.00 | 3.17 | 3.17 | 67 | 1015.8 |
| 20260901001514 | 26 | 100 | 4.8 | 8.0 | 0.00 | 3.17 | 3.17 | 67 | 1015.8 |
| 20260901001028 | 26 | 108 | 3.2 | 8.0 | 0.00 | 3.17 | 3.17 | 68 | 1015.8 |
| 20260901000523 | 26 | 146 | 3.2 | 8.0 | 0.00 | 3.17 | 3.17 | 67 | 1015.8 |
| 20260901000029 | 26 | 148 | 3.2 | 8.0 | 0.00 | 3.17 | 3.17 | 66 | 1015.8 |
| 20260831235529 | 26 | 149 | 3.2 | 12.9 | 0.00 | 3.17 | 3.17 | 66 | 1015.9 |
| 20260831235027 | 26 | 133 | 4.8 | 12.9 | 0.00 | 3.17 | 3.17 | 67 | 1016.0 |
| 20260831234522 | 26 | 137 | 4.8 | 9.7 | 0.00 | 3.17 | 3.17 | 67 | 1016.0 |
| 20260831234017 | 26 | 207 | 3.2 | 9.7 | 0.00 | 3.17 | 3.17 | 67 | 1015.9 |
| 20260831233531 | 25 | 110 | 6.4 | 12.9 | 0.00 | 3.17 | 3.17 | 68 | 1016.1 |
| 20260831233026 | 25 | 115 | 8.0 | 12.9 | 0.00 | 3.17 | 3.17 | 68 | 1016.0 |
| 20260831232521 | 25 | 109 | 6.4 | 12.9 | 0.00 | 3.17 | 3.17 | 68 | 1016.0 |
| 20260831232015 | 26 | 92 | 8.0 | 12.9 | 0.00 | 3.17 | 3.17 | 67 | 1016.1 |
| 20260831231534 | 25 | 129 | 8.0 | 14.5 | 0.00 | 3.17 | 3.17 | 64 | 1016.3 |
| 20260831231025 | 25 | 116 | 6.4 | 14.5 | 0.00 | 3.17 | 3.17 | 64 | 1016.1 |
| 20260831230519 | 25 | 77 | 8.0 | 14.5 | 0.00 | 3.17 | 3.17 | 67 | 1016.1 |
| 20260831230046 | 25 | 110 | 8.0 | 14.5 | 0.00 | 3.17 | 3.17 | 67 | 1016.1 |
| 20260831225528 | 25 | 104 | 8.0 | 17.7 | 0.00 | 3.17 | 3.17 | 68 | 1016.1 |
| 20260831225022 | 25 | 124 | 9.7 | 20.9 | 0.00 | 3.17 | 3.17 | 68 | 1016.3 |
| 20260831224517 | 25 | 99 | 8.0 | 22.5 | 0.00 | 3.17 | 3.17 | 70 | 1016.4 |
| 20260831224016 | 25 | 113 | 12.9 | 24.1 | 0.00 | 3.17 | 3.17 | 70 | 1016.4 |
| 20260831223530 | 25 | 104 | 12.9 | 22.5 | 0.00 | 3.17 | 3.17 | 70 | 1016.5 |
| 20260831223023 | 25 | 185 | 9.7 | 19.3 | 0.00 | 3.17 | 3.17 | 72 | 1016.7 |
| 20260831222517 | 25 | 140 | 6.4 | 19.3 | 0.00 | 3.17 | 3.17 | 75 | 1016.7 |
| 20260831222030 | 24 | 146 | 9.7 | 17.7 | 0.00 | 3.17 | 3.17 | 75 | 1016.7 |
| 20260831221524 | 24 | 136 | 8.0 | 17.7 | 0.00 | 3.17 | 3.17 | 75 | 1016.8 |
| 20260831221018 | 24 | 122 | 11.3 | 17.7 | 0.00 | 3.17 | 3.17 | 75 | 1016.9 |
| 20260831220532 | 24 | 112 | 8.0 | 17.7 | 0.00 | 3.17 | 3.17 | 77 | 1017.0 |
| 20260831220042 | 24 | 140 | 9.7 | 17.7 | 0.00 | 3.17 | 3.17 | 78 | 1017.1 |
| 20260831215520 | 23 | 122 | 8.0 | 17.7 | 0.00 | 3.17 | 3.17 | 79 | 1017.3 |
| 20260831215034 | 23 | 111 | 9.7 | 17.7 | 0.00 | 3.17 | 3.17 | 78 | 1017.4 |
| 20260831214528 | 23 | 133 | 9.7 | 17.7 | 0.00 | 3.17 | 3.17 | 80 | 1017.4 |
| 20260831214022 | 23 | 134 | 4.8 | 14.5 | 0.03 | 3.17 | 3.17 | 83 | 1017.5 |
| 20260831213516 | 23 | 204 | 4.8 | 9.7 | 0.03 | 3.17 | 3.17 | 85 | 1017.8 |
| 20260831213031 | 22 | 159 | 4.8 | 9.7 | 0.05 | 3.17 | 3.17 | 87 | 1018.2 |
| 20260831212525 | 22 | 191 | 4.8 | 9.7 | 0.08 | 3.17 | 3.17 | 90 | 1018.3 |
| 20260831212023 | 21 | 204 | 3.2 | 9.7 | 0.08 | 3.17 | 3.17 | 91 | 1018.3 |
| 20260831211517 | 21 | 200 | 3.2 | 8.0 | 0.13 | 3.17 | 3.17 | 92 | 1018.5 |
| 20260831211032 | 21 | 134 | 3.2 | 12.9 | 0.15 | 3.17 | 3.17 | 92 | 1018.6 |
| 20260831210525 | 20 | 206 | 3.2 | 14.5 | 0.18 | 3.17 | 3.17 | 92 | 1018.8 |
| 20260831210031 | 20 | 137 | 4.8 | 16.1 | 0.18 | 3.17 | 3.17 | 92 | 1019.1 |
| 20260831205531 | 20 | 142 | 6.4 | 16.1 | 0.20 | 3.17 | 3.17 | 92 | 1019.2 |
| 20260831205025 | 20 | 216 | 6.4 | 12.9 | 0.20 | 3.17 | 3.17 | 92 | 1019.5 |
| 20260831204523 | 20 | 173 | 3.2 | 16.1 | 0.23 | 3.17 | 3.17 | 92 | 1019.4 |
| 20260831204016 | 20 | 124 | 9.7 | 16.1 | 0.23 | 3.15 | 3.15 | 92 | 1019.3 |
| 20260831203530 | 20 | 92 | 8.0 | 12.9 | 0.25 | 3.15 | 3.15 | 92 | 1019.5 |
| 20260831203024 | 20 | 117 | 6.4 | 12.9 | 0.25 | 3.12 | 3.12 | 92 | 1019.9 |
| 20260831202518 | 20 | 130 | 6.4 | 9.7 | 0.23 | 3.10 | 3.10 | 92 | 1020.2 |
| 20260831202033 | 20 | 135 | 3.2 | 12.9 | 0.25 | 3.10 | 3.10 | 92 | 1020.4 |
| 20260831201527 | 20 | 135 | 6.4 | 12.9 | 0.20 | 3.05 | 3.05 | 93 | 1020.4 |
| 20260831201021 | 20 | 117 | 3.2 | 8.0 | 0.20 | 3.02 | 3.02 | 93 | 1020.7 |
| 20260831200519 | 20 | 129 | 3.2 | 12.9 | 0.18 | 3.00 | 3.00 | 93 | 1020.8 |
| 20260831200047 | 20 | 125 | 6.4 | 12.9 | 0.20 | 3.00 | 3.00 | 92 | 1020.7 |
| 20260831195527 | 20 | 135 | 6.4 | 12.9 | 0.18 | 2.97 | 2.97 | 93 | 1020.8 |
| 20260831195020 | 20 | 124 | 4.8 | 9.7 | 0.23 | 2.97 | 2.97 | 93 | 1020.9 |
| 20260831194514 | 20 | 177 | 4.8 | 11.3 | 0.23 | 2.95 | 2.95 | 93 | 1021.0 |
| 20260831194029 | 19 | 253 | 3.2 | 11.3 | 0.20 | 2.92 | 2.92 | 93 | 1021.2 |
| 20260831193524 | 20 | 254 | 4.8 | 11.3 | 0.20 | 2.90 | 2.90 | 93 | 1021.3 |
| 20260831193023 | 20 | 274 | 4.8 | 11.3 | 0.20 | 2.87 | 2.87 | 93 | 1021.3 |
| 20260831192517 | 20 | 312 | 1.6 | 8.0 | 0.23 | 2.87 | 2.87 | 93 | 1021.3 |
| 20260831192032 | 20 | 312 | 3.2 | 6.4 | 0.23 | 2.84 | 2.84 | 93 | 1021.3 |
| 20260831191526 | 20 | 313 | 3.2 | 4.8 | 0.23 | 2.84 | 2.84 | 93 | 1021.4 |
| 20260831191020 | 20 | 313 | 1.6 | 4.8 | 0.23 | 2.82 | 2.82 | 92 | 1021.3 |
| 20260831190515 | 20 | 314 | 1.6 | 8.0 | 0.38 | 2.82 | 2.82 | 93 | 1021.2 |
| 20260831190043 | 20 | 314 | 3.2 | 8.0 | 0.61 | 2.79 | 2.79 | 92 | 1021.4 |
| 20260831185522 | 20 | 314 | 1.6 | 4.8 | 0.74 | 2.79 | 2.79 | 92 | 1021.8 |
| 20260831185020 | 20 | 314 | 1.6 | 4.8 | 0.81 | 2.74 | 2.74 | 92 | 1021.8 |
| 20260831184514 | 20 | 314 | 0.0 | 3.2 | 0.81 | 2.72 | 2.72 | 92 | 1021.8 |
| 20260831184028 | 20 | 314 | 0.0 | 3.2 | 0.81 | 2.72 | 2.72 | 92 | 1021.9 |
| 20260831183522 | 20 | 314 | 0.0 | 1.6 | 0.79 | 2.69 | 2.69 | 92 | 1021.7 |
| 20260831183015 | 20 | 314 | 0.0 | 4.8 | 0.79 | 2.67 | 2.67 | 92 | 1021.7 |
| 20260831182529 | 20 | 314 | 1.6 | 8.0 | 0.76 | 2.64 | 2.64 | 92 | 1021.4 |
| 20260831182023 | 20 | 315 | 1.6 | 11.3 | 0.76 | 2.62 | 2.62 | 92 | 1021.4 |
| 20260831181521 | 20 | 295 | 4.8 | 12.9 | 0.91 | 2.62 | 2.62 | 92 | 1021.5 |
| 20260831181015 | 20 | 287 | 4.8 | 17.7 | 1.22 | 2.57 | 2.57 | 92 | 1021.6 |
| 20260831180529 | 20 | 289 | 6.4 | 17.7 | 1.19 | 2.44 | 2.44 | 92 | 1021.8 |
| 20260831180036 | 20 | 280 | 9.7 | 16.1 | 0.94 | 2.18 | 2.18 | 91 | 1021.8 |
| 20260831175515 | 20 | 299 | 3.2 | 8.0 | 0.79 | 2.03 | 2.03 | 91 | 1021.8 |
| 20260831175029 | 20 | 297 | 3.2 | 12.9 | 0.69 | 1.93 | 1.93 | 91 | 1021.8 |
| 20260831174523 | 20 | 296 | 3.2 | 12.9 | 0.66 | 1.91 | 1.91 | 91 | 1021.6 |
| 20260831174017 | 21 | 325 | 1.6 | 8.0 | 0.66 | 1.91 | 1.91 | 91 | 1021.6 |
| 20260831173515 | 21 | 325 | 3.2 | 8.0 | 0.66 | 1.91 | 1.91 | 91 | 1021.4 |
| 20260831173030 | 21 | 314 | 3.2 | 8.0 | 0.64 | 1.88 | 1.88 | 90 | 1021.2 |
| 20260831172524 | 21 | 304 | 1.6 | 4.8 | 0.64 | 1.88 | 1.88 | 90 | 1021.2 |
| 20260831172018 | 21 | 302 | 3.2 | 9.7 | 0.61 | 1.85 | 1.85 | 89 | 1021.2 |
| 20260831171532 | 21 | 290 | 3.2 | 16.1 | 0.46 | 1.70 | 1.70 | 87 | 1020.9 |
| 20260831171026 | 22 | 288 | 6.4 | 16.1 | 0.10 | 1.35 | 1.35 | 83 | 1020.7 |
| 20260831170521 | 23 | 295 | 4.8 | 16.1 | 0.00 | 1.24 | 1.24 | 80 | 1020.7 |
| 20260831170030 | 23 | 285 | 4.8 | 11.3 | 0.00 | 1.24 | 1.24 | 82 | 1020.7 |
| 20260831165529 | 23 | 315 | 1.6 | 14.5 | 0.00 | 1.24 | 1.24 | 81 | 1020.7 |
| 20260831165023 | 24 | 325 | 6.4 | 14.5 | 0.00 | 1.24 | 1.24 | 76 | 1020.3 |
| 20260831164517 | 24 | 297 | 3.2 | 11.3 | 0.00 | 1.24 | 1.24 | 74 | 1020.2 |
| 20260831164031 | 25 | 338 | 1.6 | 6.4 | 0.00 | 1.24 | 1.24 | 75 | 1019.9 |
| 20260831163525 | 25 | 354 | 1.6 | 6.4 | 0.00 | 1.24 | 1.24 | 75 | 1019.8 |
| 20260831163019 | 24 | 354 | 1.6 | 4.8 | 0.00 | 1.24 | 1.24 | 75 | 1019.9 |
| 20260831162533 | 24 | 354 | 1.6 | 8.0 | 0.00 | 1.24 | 1.24 | 76 | 1019.7 |
| 20260831162031 | 24 | 354 | 3.2 | 11.3 | 0.00 | 1.24 | 1.24 | 75 | 1019.7 |
| 20260831161525 | 25 | 354 | 1.6 | 11.3 | 0.00 | 1.24 | 1.24 | 76 | 1019.4 |
| 20260831161019 | 25 | 334 | 4.8 | 8.0 | 0.00 | 1.24 | 1.24 | 75 | 1019.3 |
| 20260831160532 | 25 | 323 | 3.2 | 9.7 | 0.00 | 1.24 | 1.24 | 76 | 1019.2 |
| 20260831160039 | 25 | 356 | 3.2 | 9.7 | 0.00 | 1.24 | 1.24 | 74 | 1019.0 |
| 20260831155518 | 25 | 4 | 4.8 | 9.7 | 0.00 | 1.24 | 1.24 | 74 | 1019.0 |
| 20260831155032 | 25 | 4 | 3.2 | 8.0 | 0.00 | 1.24 | 1.24 | 74 | 1018.9 |
| 20260831154526 | 25 | 4 | 4.8 | 8.0 | 0.00 | 1.24 | 1.24 | 73 | 1018.8 |
| 20260831154023 | 25 | 341 | 4.8 | 8.0 | 0.00 | 1.24 | 1.24 | 73 | 1018.7 |
| 20260831153517 | 25 | 329 | 3.2 | 9.7 | 0.00 | 1.24 | 1.24 | 75 | 1018.6 |
| 20260831153031 | 25 | 314 | 4.8 | 9.7 | 0.00 | 1.24 | 1.24 | 75 | 1018.5 |
| 20260831152524 | 25 | 310 | 1.6 | 6.4 | 0.00 | 1.24 | 1.24 | 78 | 1018.5 |
| 20260831152017 | 24 | 310 | 1.6 | 8.0 | 0.00 | 1.24 | 1.24 | 83 | 1018.5 |
| 20260831151531 | 23 | 310 | 3.2 | 4.8 | 0.00 | 1.24 | 1.24 | 82 | 1018.4 |
| 20260831151025 | 23 | 310 | 0.0 | 4.8 | 0.00 | 1.24 | 1.24 | 82 | 1018.5 |
| 20260831150523 | 23 | 310 | 0.0 | 8.0 | 0.00 | 1.24 | 1.24 | 85 | 1018.4 |
| 20260831150028 | 22 | 310 | 1.6 | 8.0 | 0.00 | 1.24 | 1.24 | 87 | 1018.2 |
| 20260831145529 | 22 | 312 | 4.8 | 9.7 | 0.00 | 1.24 | 1.24 | 87 | 1018.2 |
| 20260831145023 | 22 | 337 | 3.2 | 6.4 | 0.00 | 1.24 | 1.24 | 86 | 1018.0 |
| 20260831144517 | 23 | 19 | 1.6 | 4.8 | 0.00 | 1.24 | 1.24 | 86 | 1018.0 |
| 20260831144031 | 23 | 21 | 1.6 | 4.8 | 0.00 | 1.24 | 1.24 | 85 | 1018.0 |
| 20260831143525 | 23 | 21 | 0.0 | 4.8 | 0.00 | 1.24 | 1.24 | 84 | 1017.9 |
| 20260831143018 | 22 | 21 | 0.0 | 8.0 | 0.00 | 1.24 | 1.24 | 85 | 1017.9 |
| 20260831142516 | 22 | 21 | 3.2 | 9.7 | 0.03 | 1.24 | 1.24 | 84 | 1017.8 |
| 20260831142030 | 22 | 23 | 4.8 | 9.7 | 0.03 | 1.24 | 1.24 | 84 | 1017.9 |
| 20260831141524 | 21 | 298 | 0.0 | 6.4 | 0.03 | 1.24 | 1.24 | 86 | 1017.6 |
| 20260831141018 | 21 | 297 | 1.6 | 14.5 | 0.03 | 1.24 | 1.24 | 88 | 1017.7 |
| 20260831140532 | 21 | 296 | 4.8 | 14.5 | 0.03 | 1.24 | 1.24 | 88 | 1017.6 |
| 20260831140038 | 21 | 327 | 3.2 | 16.1 | 0.03 | 1.24 | 1.24 | 89 | 1017.6 |
| 20260831135517 | 21 | 280 | 4.8 | 16.1 | 0.03 | 1.24 | 1.24 | 90 | 1017.7 |
| 20260831135015 | 21 | 285 | 4.8 | 11.3 | 0.03 | 1.24 | 1.24 | 90 | 1017.7 |
| 20260831134530 | 21 | 284 | 3.2 | 16.1 | 0.03 | 1.24 | 1.24 | 90 | 1017.7 |
| 20260831134023 | 21 | 286 | 11.3 | 16.1 | 0.03 | 1.24 | 1.24 | 91 | 1017.8 |
| 20260831133517 | 21 | 274 | 6.4 | 16.1 | 0.03 | 1.24 | 1.24 | 90 | 1017.8 |
| 20260831133031 | 21 | 277 | 8.0 | 14.5 | 0.03 | 1.24 | 1.24 | 90 | 1017.8 |
| 20260831132525 | 21 | 277 | 8.0 | 12.9 | 0.00 | 1.22 | 1.22 | 90 | 1017.9 |
| 20260831132020 | 20 | 313 | 1.6 | 9.7 | 0.03 | 1.22 | 1.22 | 90 | 1017.8 |
| 20260831131513 | 20 | 342 | 3.2 | 17.7 | 0.03 | 1.22 | 1.22 | 91 | 1017.9 |
| 20260831131031 | 20 | 355 | 8.0 | 17.7 | 0.05 | 1.22 | 1.22 | 91 | 1018.0 |
| 20260831130525 | 20 | 333 | 3.2 | 8.0 | 0.28 | 1.22 | 1.22 | 91 | 1018.2 |
| 20260831130031 | 20 | 342 | 3.2 | 12.9 | 0.76 | 1.22 | 1.22 | 91 | 1018.3 |
| 20260831125531 | 20 | 291 | 4.8 | 11.3 | 1.09 | 1.22 | 1.22 | 91 | 1018.8 |
| 20260831125025 | 20 | 310 | 4.8 | 8.0 | 1.17 | 1.22 | 1.22 | 91 | 1018.7 |
| 20260831124519 | 20 | 354 | 3.2 | 12.9 | 1.17 | 1.22 | 1.22 | 91 | 1019.2 |
| 20260831124014 | 20 | 13 | 6.4 | 12.9 | 1.17 | 1.22 | 1.22 | 91 | 1018.4 |
| 20260831123528 | 20 | 25 | 6.4 | 14.5 | 1.17 | 1.22 | 1.22 | 91 | 1018.7 |
| 20260831123026 | 20 | 305 | 1.6 | 11.3 | 1.17 | 1.22 | 1.22 | 91 | 1018.6 |
| 20260831122520 | 20 | 335 | 4.8 | 17.7 | 1.17 | 1.22 | 1.22 | 90 | 1018.5 |
| 20260831122014 | 20 | 358 | 6.4 | 16.1 | 1.17 | 1.19 | 1.19 | 90 | 1018.5 |
| 20260831121528 | 20 | 355 | 6.4 | 16.1 | 1.19 | 1.19 | 1.19 | 90 | 1018.1 |
| 20260831121022 | 21 | 8 | 4.8 | 12.9 | 1.17 | 1.17 | 1.17 | 89 | 1018.2 |
| 20260831120516 | 21 | 311 | 1.6 | 8.0 | 0.86 | 0.86 | 0.89 | 88 | 1018.0 |
| 20260831120040 | 21 | 305 | 3.2 | 8.0 | 0.46 | 0.46 | 0.46 | 85 | 1018.2 |
| 20260831115524 | 22 | 308 | 3.2 | 11.3 | 0.13 | 0.13 | 0.13 | 82 | 1018.1 |